Location: Mount Wilson Observatory
(34.2257°N, 118.0571°W)
Time: 05:12:53
(UTC-07:00)

ATLAS 3B CENTAUR R/B - Visible Passes

Search period start: 21 August 2017 00:00
Search period end: 31 August 2017 00:00
Orbit: 226 x 5953 km, 28.1° (Epoch: 20 August)

Date Brightness Start Highest point End Pass type
(mag) Time Alt. Az. Time Alt. Az. Time Alt. Az.
21 Aug 5.9 01:48:13 50° SSE 01:50:08 51° SSE 02:11:22 10° E visible
21 Aug 5.1 04:20:53 26° WSW 04:41:56 69° S 04:54:15 10° E visible
21 Aug 6.9 21:25:02 10° SSE 22:09:16 - E 21:28:15 12° SSE visible
21 Aug 6.2 23:59:54 10° SSW 00:41:53 39° SE 00:59:52 10° E visible
22 Aug 5.5 03:14:30 43° SW 03:28:44 65° SSE 03:45:05 10° E visible
22 Aug 4.5 05:51:53 10° W 06:17:16 67° S 06:26:02 10° ESE visible
22 Aug 6.6 22:49:01 10° SSW 23:35:18 24° ESE 23:46:06 10° E visible
23 Aug 5.8 02:07:54 55° S 02:13:54 59° SSE 02:34:58 10° E visible
23 Aug 5.0 04:40:29 19° WSW 05:05:28 72° S 05:17:18 10° E visible
23 Aug 6.7 21:40:41 10° S 22:28:28 10° E 21:50:30 18° SSE visible
24 Aug 6.1 00:21:01 10° SW 01:01:02 50° SE 01:23:32 10° E visible
24 Aug 5.4 03:33:36 37° WSW 03:51:58 71° S 04:07:51 10° E visible
24 Aug 6.8 20:39:24 10° SE 20:45:07 11° SE 20:45:07 11° SE visible
24 Aug 6.4 23:08:50 10° SSW 23:53:55 35° ESE 00:10:18 10° E visible
25 Aug 5.8 02:26:28 54° SSW 02:36:44 66° SSE 02:57:28 10° E visible
25 Aug 5.0 04:59:00 13° W 05:27:58 71° S 05:39:24 10° ESE visible
25 Aug 6.5 21:58:39 10° S 22:46:34 19° E 22:54:10 10° E visible
26 Aug 6.0 00:41:49 10° SW 01:20:02 59° SSE 01:45:55 10° E visible
26 Aug 5.4 03:51:35 30° WSW 04:14:15 74° S 04:29:38 10° E visible
26 Aug 6.6 20:51:21 10° SSE 21:38:57 - E 21:06:51 19° SE visible
26 Aug 6.3 23:28:31 10° SW 00:11:26 46° ESE 00:32:46 10° E visible
27 Aug 5.7 02:43:55 49° SW 02:58:37 72° S 03:18:57 10° E visible
27 Aug 5.0 05:18:37 10° W 05:49:24 68° SSW 06:00:31 10° ESE visible
27 Aug 6.4 22:17:02 10° SSW 23:03:32 28° ESE 23:17:22 10° E visible
28 Aug 5.9 01:02:10 10° SW 01:41:19 66° SSE 02:07:09 10° E visible
28 Aug 5.3 04:08:26 23° W 04:35:30 74° S 04:50:27 10° ESE visible
28 Aug 6.4 21:07:33 10° S 21:55:22 13° E 21:58:20 10° E visible
28 Aug 6.1 23:47:51 10° SW 00:27:47 56° SE 00:53:55 10° E visible
29 Aug 5.7 03:00:11 41° WSW 03:19:35 75° S 03:39:28 10° E visible
29 Aug 5.0 05:40:02 10° W 06:09:40 61° SSW 06:20:35 10° SE visible
29 Aug 6.6 20:01:57 10° SSE 20:15:19 15° SE 20:22:41 14° ESE visible
29 Aug 6.2 22:35:19 10° SSW 23:19:18 39° ESE 23:38:44 10° E visible
30 Aug 5.9 01:21:58 10° WSW 02:01:45 72° SSE 02:27:23 10° E visible
30 Aug 5.3 04:24:04 16° W 04:55:42 71° SSW 05:10:17 10° ESE visible
30 Aug 6.3 21:24:27 10° SSW 21:48:38 35° SE 22:20:42 10° E visible
